Weather History for Springfield, VT

Change the Weather History Date:

Monday, February 11, 2013

  Actual Average Record
Temperature  
Mean Temperature 20 °F 22 °F  
Max Temperature 32 °F 32 °F 54 °F (2009)
Min Temperature 7 °F 12 °F -10 °F (2014)
Degree Days  
Heating Degree Days 45 43  
Month to date heating degree days 514 484  
Since 1 July heating degree days 4238 4756  
Moisture  
Dew Point 22 °F    
Average Humidity 81    
Maximum Humidity 100    
Minimum Humidity 62    
Precipitation  
Precipitation 0.12 in 0.11 in 0.22 in (2000)
Month to date precipitation 0.79 1.05  
Year to date precipitation 2.12 3.97  
Sea Level Pressure  
Sea Level Pressure 29.87 in    
Wind  
Wind Speed 0 mph (South)    
Max Wind Speed 7 mph    
Max Gust Speed 9 mph    
Visibility 3 miles    
Events Fog , Rain , Snow    
T = Trace of Precipitation, MM = Missing Value Source: NWS Daily Summary

Daily Weather History Graph

Daily Weather History Graph

Search for Another Location

Airport:

Trip Planner

Search our weather history database for the weather conditions in past years. The results will help you decide how hot, cold, wet, or windy it might be!

Date:

Astronomy

Feb. 11, 2013 Rise Set
Actual Time 6:53 AM EST 5:15 PM EST
Civil Twilight 6:23 AM EST 5:45 PM EST
Nautical Twilight 5:50 AM EST 6:18 PM EST
Astronomical Twilight 5:17 AM EST 6:52 PM EST
Moon 7:12 AM EST (2/11) 7:14 PM EST (2/11)
Length of Visible Light 11h 21m
Length of Day
10h 22m
Waxing Crescent, 3% of the Moon is Illuminated
Feb 11
Waxing Crescent
Feb 17
First Quarter
Feb 25
Full
Mar 4
Last Quarter
Mar 11
New

Hourly Weather History & Observations

Time (EST) Temp. Windchill Dew Point Humidity Pressure Visibility Wind Dir Wind Speed Gust Speed Precip Events Conditions
12:54 AM 8.1 °F - 3.0 °F 80% 30.32 in 4.0 mi Calm Calm - N/A   Haze
1:54 AM 8.1 °F - 3.0 °F 80% 30.30 in 7.0 mi Calm Calm - N/A   Partly Cloudy
2:54 AM 9.0 °F - 3.0 °F 77% 30.28 in 7.0 mi Calm Calm - N/A   Clear
3:54 AM 10.0 °F - 5.0 °F 80% 30.24 in 8.0 mi Calm Calm - N/A   Overcast
4:54 AM 10.9 °F - 5.0 °F 77% 30.21 in 9.0 mi Calm Calm - N/A   Clear
6:54 AM 14.0 °F 8.2 °F 7.0 °F 74% 30.16 in 10.0 mi South 3.5 mph - N/A   Overcast
7:54 AM 19.9 °F - 9.0 °F 62% 30.13 in 9.0 mi Calm Calm - N/A   Overcast
8:03 AM 19.4 °F 14.3 °F 10.4 °F 68% 30.09 in 9.0 mi West 3.5 mph - N/A   Overcast
8:41 AM 21.2 °F - 12.2 °F 68% 30.07 in 2.5 mi Calm Calm - 0.00 in Snow Light Snow
8:54 AM 21.9 °F - 16.0 °F 78% 30.10 in 3.0 mi Calm Calm - 0.00 in Snow Light Snow
9:14 AM 21.2 °F - 15.8 °F 80% 30.05 in 1.5 mi Calm Calm - 0.00 in Snow Light Snow
9:23 AM 21.2 °F - 17.6 °F 86% 30.04 in 0.5 mi Calm Calm - 0.01 in Snow Snow
9:45 AM 23.0 °F - 19.4 °F 86% 30.02 in 1.2 mi Calm Calm - 0.02 in Snow Light Snow
9:54 AM 23.0 °F - 19.0 °F 85% 30.06 in 0.8 mi Calm Calm - 0.03 in Snow Light Snow
10:13 AM 24.8 °F - 19.4 °F 80% 30.00 in 1.0 mi Calm Calm - 0.01 in Snow Light Snow
10:30 AM 24.8 °F - 21.2 °F 86% 29.98 in 0.8 mi Calm Calm - 0.01 in Snow Light Snow
10:47 AM 24.8 °F 20.5 °F 21.2 °F 86% 29.97 in 1.8 mi North 3.5 mph - 0.02 in Snow Light Snow
10:54 AM 25.0 °F - 21.0 °F 85% 30.00 in 2.0 mi Calm Calm - 0.02 in Snow Light Snow
11:01 AM 24.8 °F - 21.2 °F 86% 29.96 in 1.0 mi Calm Calm - 0.01 in Snow Light Snow
11:13 AM 24.8 °F - 21.2 °F 86% 29.95 in 3.0 mi Calm Calm - 0.01 in Snow Light Snow
11:24 AM 24.8 °F 20.5 °F 21.2 °F 86% 29.94 in 1.8 mi ENE 3.5 mph - 0.02 in Snow Light Snow
11:54 AM 26.1 °F - 23.0 °F 88% 29.94 in 2.5 mi Calm Calm - 0.04 in Snow Light Snow
12:01 PM 26.6 °F - 23.0 °F 86% 29.89 in 4.0 mi Calm Calm - 0.01 in Snow Light Snow
12:54 PM 28.0 °F - 25.0 °F 88% 29.89 in 7.0 mi Calm Calm - 0.02 in   Overcast
1:21 PM 28.4 °F - 26.6 °F 93% 29.82 in 3.0 mi Calm Calm - N/A   Overcast
1:54 PM 30.0 °F - 27.0 °F 88% 29.84 in 6.0 mi Calm Calm - N/A   Overcast
2:54 PM 30.0 °F - 27.0 °F 88% 29.79 in 6.0 mi Calm Calm - N/A   Overcast
3:11 PM 30.2 °F - 28.4 °F 93% 29.74 in 6.0 mi Calm Calm - N/A   Overcast
3:54 PM 30.9 °F - 28.0 °F 89% 29.75 in 6.0 mi Calm Calm - N/A   Overcast
4:54 PM 30.9 °F - 28.9 °F 92% 29.73 in 5.0 mi Calm Calm - N/A   Overcast
5:54 PM 30.0 °F - 28.9 °F 96% 29.70 in 2.0 mi Calm Calm - N/A   Overcast
6:02 PM 30.2 °F - 28.4 °F 93% 29.67 in 1.0 mi Calm Calm - N/A   Overcast
6:13 PM 30.2 °F - 28.4 °F 93% 29.67 in 0.5 mi Calm Calm - N/A Fog Light Freezing Fog
6:34 PM 30.2 °F - 28.4 °F 93% 29.66 in 1.0 mi Calm Calm - N/A   Overcast
6:54 PM 30.9 °F - 28.9 °F 92% 29.69 in 0.5 mi Calm Calm - N/A Fog Light Freezing Fog
7:20 PM 30.2 °F - 28.4 °F 93% 29.65 in 0.2 mi Calm Calm - N/A Fog Light Freezing Fog
7:54 PM 30.9 °F - 28.9 °F 92% 29.68 in 0.2 mi Calm Calm - N/A Fog Light Freezing Fog
8:54 PM 30.9 °F 27.5 °F 28.9 °F 92% 29.67 in 0.2 mi East 3.5 mph - N/A Fog Light Freezing Fog
9:32 PM 30.2 °F - 28.4 °F 93% 29.64 in 0.5 mi Calm Calm - 0.00 in Fog , Rain Light Freezing Rain
9:51 PM 30.2 °F - 30.2 °F 100% 29.65 in 1.2 mi Calm Calm - 0.01 in Rain Light Freezing Rain
9:54 PM 30.9 °F - 28.9 °F 92% 29.68 in 1.0 mi Calm Calm - 0.01 in Rain Light Freezing Rain
10:09 PM 30.2 °F 26.7 °F 30.2 °F 100% 29.64 in 0.5 mi SSE 3.5 mph - 0.00 in Fog , Rain Light Freezing Rain
10:20 PM 30.2 °F 26.7 °F 30.2 °F 100% 29.64 in 0.5 mi WSW 3.5 mph - 0.00 in Fog Light Freezing Fog
10:54 PM 30.9 °F 27.5 °F 30.0 °F 96% 29.65 in 0.8 mi Variable 3.5 mph - 0.00 in   Overcast
11:00 PM 30.2 °F - 30.2 °F 100% 29.63 in 2.0 mi Calm Calm - N/A   Overcast
11:18 PM 30.2 °F 23.4 °F 30.2 °F 100% 29.62 in 1.5 mi South 6.9 mph - 0.00 in   Overcast
11:28 PM 30.2 °F - 30.2 °F 100% 29.61 in 3.0 mi Calm Calm - 0.00 in   Overcast
11:42 PM 30.2 °F 24.3 °F 30.2 °F 100% 29.61 in 4.0 mi Variable 5.8 mph - 0.00 in   Overcast
11:54 PM 30.9 °F - 30.0 °F 96% 29.64 in 2.5 mi Calm Calm - 0.00 in   Overcast